Powrót do katalogu

COSMOS 1275 DEB

AktywnyPO
NORAD 12694·DEBRIS·🇷🇺 Russia

Wystrzelony Jun 4, 1981 z Plesetsk Cosmodrome

Loading…

Następne Przeloty (najbliższe 24 godziny)

TLE

ŚwieżeSource: Space-Track

Epoka: Sep 14, 2026, 08:14 UTC

1 12694U 81053AN  26257.34347044  .00000274  00000-0  32033-3 0  9997
2 12694  83.0820  36.4233 0113624   0.6911  25.6550 13.62461647235115

Śledź COSMOS 1275 DEB w czasie rzeczywistym z AllMySat

Download on the App Store